Weather History for KBPI - September, 2013

Change the Weather History Date:

Thursday, September 19, 2013

  Actual Average Record
Temperature  
Mean Temperature 43 °F 48 °F  
Max Temperature 59 °F 67 °F 83 °F (2010)
Min Temperature 27 °F 30 °F 17 °F (1978)
Degree Days  
Heating Degree Days 22 17  
Month to date heating degree days 130 251  
Since 1 July heating degree days 231 544  
Cooling Degree Days 0 0  
Month to date cooling degree days 5 0  
Year to date cooling degree days 89 35  
Moisture  
Dew Point 27 °F    
Average Humidity 56    
Maximum Humidity 85    
Minimum Humidity 26    
Precipitation  
Precipitation 0.00 in 0.02 in 0.90 in (1978)
Month to date precipitation 0.76 0.48  
Year to date precipitation 3.76 5.14  
Sea Level Pressure  
Sea Level Pressure 30.11 in    
Wind  
Wind Speed 4 mph (NW)    
Max Wind Speed 13 mph    
Max Gust Speed 29 mph    
Visibility 10 miles    
Events      
T = Trace of Precipitation, MM = Missing Value Source: NWS Daily Summary

Daily Weather History Graph

Daily Weather History Graph

Search for Another Location

Airport or City:

Trip Planner

Search our weather history database for the weather conditions in past years. The results will help you decide how hot, cold, wet, or windy it might be!

Date:

Astronomy

Sep. 19, 2013 Rise Set
Actual Time 7:04 AM MDT 7:22 PM MDT
Civil Twilight 6:36 AM MDT 7:50 PM MDT
Nautical Twilight 6:03 AM MDT 8:23 PM MDT
Astronomical Twilight 5:29 AM MDT 8:57 PM MDT
Moon 7:20 PM MDT (9/19) 7:19 AM MDT (9/19)
Length of Visible Light 13h 13m
Length of Day
12h 17m
Full, 100% of the Moon is Illuminated
Sep 19
Full
Sep 26
Last Quarter
Oct 4
New
Oct 11
First Quarter
Oct 18
Full

Hourly Weather History & Observations

Time (MDT) Temp. Windchill Dew Point Humidity Pressure Visibility Wind Dir Wind Speed Gust Speed Precip Events Conditions
12:53 AM 35.1 °F 27.9 °F 30.0 °F 82% 30.02 in 10.0 mi NNW 9.2 mph - N/A   Clear
1:53 AM 36.0 °F - 28.9 °F 76% 30.02 in 10.0 mi Calm Calm - N/A   Clear
2:53 AM 30.9 °F 26.2 °F 27.0 °F 85% 30.06 in 10.0 mi NNW 4.6 mph - N/A   Clear
3:53 AM 30.9 °F 26.2 °F 27.0 °F 85% 30.06 in 10.0 mi WSW 4.6 mph - N/A   Clear
4:53 AM 30.0 °F 26.5 °F 27.0 °F 88% 30.10 in 10.0 mi ENE 3.5 mph - N/A   Clear
5:53 AM 30.0 °F - 26.1 °F 85% 30.09 in 10.0 mi Calm Calm - N/A   Clear
6:53 AM 28.0 °F - 25.0 °F 88% 30.15 in 10.0 mi Calm Calm - N/A   Clear
7:53 AM 32.0 °F - 28.0 °F 85% 30.17 in 10.0 mi Calm Calm - N/A   Clear
8:53 AM 37.9 °F 35.5 °F 30.0 °F 73% 30.17 in 10.0 mi NW 3.5 mph - N/A   Clear
9:53 AM 46.9 °F - 30.0 °F 52% 30.14 in 10.0 mi Calm Calm - N/A   Clear
10:53 AM 48.9 °F - 28.0 °F 44% 30.15 in 10.0 mi Calm Calm - N/A   Clear
11:53 AM 51.1 °F - 27.0 °F 39% 30.13 in 10.0 mi Variable 5.8 mph - N/A   Clear
12:53 PM 54.0 °F - 24.1 °F 31% 30.12 in 10.0 mi WSW 6.9 mph - N/A   Clear
1:53 PM 55.9 °F - 25.0 °F 30% 30.10 in 10.0 mi Variable 3.5 mph - N/A   Clear
2:53 PM 55.9 °F - 25.0 °F 30% 30.11 in 10.0 mi Variable 5.8 mph - N/A   Clear
3:53 PM 59.0 °F - 26.1 °F 28% 30.09 in 10.0 mi Calm Calm - N/A   Clear
4:53 PM 59.0 °F - 25.0 °F 27% 30.08 in 10.0 mi Variable 6.9 mph - N/A   Clear
5:53 PM 59.0 °F - 25.0 °F 27% 30.08 in 10.0 mi WSW 5.8 mph - N/A   Clear
6:53 PM 55.9 °F - 26.1 °F 32% 30.11 in 10.0 mi SW 4.6 mph - N/A   Clear
7:53 PM 54.0 °F - 21.9 °F 29% 30.11 in 10.0 mi Calm Calm - N/A   Clear
8:53 PM 46.0 °F 40.6 °F 30.9 °F 56% 30.13 in 10.0 mi NNE 11.5 mph - N/A   Clear
9:25 PM 44.6 °F 39.2 °F 30.2 °F 57% 30.24 in 10.0 mi NNE 10.4 mph - N/A   Partly Cloudy
9:53 PM 45.0 °F 39.3 °F 30.0 °F 56% 30.11 in 10.0 mi NNE 11.5 mph - N/A   Clear
10:53 PM 37.0 °F - 30.0 °F 76% 30.15 in 10.0 mi Calm Calm - N/A   Clear
11:53 PM 37.0 °F 31.6 °F 30.0 °F 76% 30.14 in 10.0 mi NNW 6.9 mph - N/A   Clear